WetterOnline ( http://www.wetteronline.de )

Wetter aktuell Bad Grund (Harz)

Aktuelles Wetter: Alfeld (148m)

6-stündlich | Neueste Meldungen
Ortszeit Temperatur Wetter
Mo, 28.05. 2:00 16.2° C bedeckt
So, 27.05. 20:00 18.4° C bewölkt
So, 27.05. 14:00 24.6° C leicht bewölkt
So, 27.05. 8:00 15.4° C wolkenlos
So, 27.05. 2:00 14.5° C wolkenlos
Sa, 26.05. 20:00 24.7° C wolkenlos
Sa, 26.05. 14:00 25.7° C wolkenlos
Sa, 26.05. 8:00 15.8° C wolkenlos
Ortszeit Temperatur Wetter
Mo, 28.05. 7:00 15.5° C bewölkt
Mo, 28.05. 6:40 15.4° C bewölkt
Mo, 28.05. 6:30 14.2° C wolkig
Mo, 28.05. 6:20 14.2° C wolkig
Mo, 28.05. 6:10 14.1° C wolkig
Mo, 28.05. 6:00 14.3° C wolkig
Mo, 28.05. 5:50 14.3° C wolkig
Mo, 28.05. 5:30 14.5° C leicht bewölkt
Mo, 28.05. 5:00 14.4° C fast wolkenlos
Mo, 28.05. 4:30 15.3° C bewölkt
Mo, 28.05. 4:00 15.0° C bedeckt
Mo, 28.05. 3:30 15.8° C wolkig
Ortszeit Relative Feuchte Sichtweite
Mo, 28.05. 2:00 92% 10 km
So, 27.05. 20:00 75% 25 km
So, 27.05. 14:00 53% 30 km
So, 27.05. 8:00 80% 15 km
So, 27.05. 2:00 81% 30 km
Sa, 26.05. 20:00 38% 45 km
Sa, 26.05. 14:00 43% 29 km
Sa, 26.05. 8:00 69% 28 km
Ortszeit Relative Feuchte Sichtweite
Mo, 28.05. 7:00 92% 5.0 km
Mo, 28.05. 6:40 91% -
Mo, 28.05. 6:30 94% 5.0 km
Mo, 28.05. 6:20 94% -
Mo, 28.05. 6:10 97% -
Mo, 28.05. 6:00 97% 5.0 km
Mo, 28.05. 5:50 97% -
Mo, 28.05. 5:30 96% 7 km
Mo, 28.05. 5:00 96% 7 km
Mo, 28.05. 4:30 95% 7 km
Mo, 28.05. 4:00 94% 7 km
Mo, 28.05. 3:30 93% 8 km
Ortszeit Niederschlagsmenge Niederschlagsart
Mo, 28.05. 2:00 0.1 l/m2 in 6 Std. Regen
So, 27.05. 20:00 0.1 l/m2 in 12 Std. Regen
So, 27.05. 14:00 0.0 l/m2 in 6 Std. -
So, 27.05. 8:00 0.0 l/m2 in 12 Std. -
So, 27.05. 2:00 0.0 l/m2 in 6 Std. -
Sa, 26.05. 20:00 0.0 l/m2 in 12 Std. -
Sa, 26.05. 14:00 0.0 l/m2 in 6 Std. -
Sa, 26.05. 8:00 0.0 l/m2 in 12 Std. -
Ortszeit Niederschlagsmenge Niederschlagsart
Mo, 28.05. 7:00 0.0 l/m2 in 1 Std. -
Mo, 28.05. 6:40 keine Meldung -
Mo, 28.05. 6:30 0.0 l/m2 in 1 Std. -
Mo, 28.05. 6:20 keine Meldung -
Mo, 28.05. 6:10 keine Meldung -
Mo, 28.05. 6:00 0.0 l/m2 in 1 Std. -
Mo, 28.05. 5:50 keine Meldung -
Mo, 28.05. 5:30 0.0 l/m2 in 1 Std. -
Mo, 28.05. 5:00 0.0 l/m2 in 1 Std. Regen
Mo, 28.05. 4:30 0.0 l/m2 in 1 Std. -
Mo, 28.05. 4:00 0.1 l/m2 in 1 Std. Regen
Mo, 28.05. 3:30 0.0 l/m2 in 1 Std. -
Ortszeit Stärke Spitze Richtung
km/h Bft. km/h Grad Sektor
Mo, 28.05. 2:00 0 0 18 - -
So, 27.05. 20:00 9 2 33 130° SO
So, 27.05. 14:00 11 2 25 70° O
So, 27.05. 8:00 11 2 14 320° NW
So, 27.05. 2:00 4 1 7 300° NW
Sa, 26.05. 20:00 6 1 22 90° O
Sa, 26.05. 14:00 11 2 22 90° O
Sa, 26.05. 8:00 4 1 7 10° N
Ortszeit Stärke Spitze Richtung
km/h Bft. km/h Grad Sektor
Mo, 28.05. 7:00 2 1 7 100° O
Mo, 28.05. 6:40 2 1 - 160° S
Mo, 28.05. 6:30 0 0 7 - -
Mo, 28.05. 6:20 0 0 - 360° N
Mo, 28.05. 6:10 4 1 - 100° O
Mo, 28.05. 6:00 4 1 7 170° S
Mo, 28.05. 5:50 4 1 - 170° S
Mo, 28.05. 5:30 0 0 4 - -
Mo, 28.05. 5:00 6 1 6 120° SO
Mo, 28.05. 4:30 4 1 4 230° SW
Mo, 28.05. 4:00 0 0 7 - -
Mo, 28.05. 3:30 4 1 7 140° SO
Ortszeit Untergrenze Bedeckung Gattung
total tief tief mittel hoch
Mo, 28.05. 2:00 3000 m 8/8 8/8 - - -
So, 27.05. 20:00 2700 m 8/8 6/8 - - -
So, 27.05. 14:00 8400 m 7/8 0/8 - - -
So, 27.05. 8:00 - 0/8 0/8 - - -
So, 27.05. 2:00 - 0/8 0/8 - - -
Sa, 26.05. 20:00 - 0/8 0/8 - - -
Sa, 26.05. 14:00 - 0/8 0/8 - - -
Sa, 26.05. 8:00 - 0/8 0/8 - - -
Ortszeit Bedeckungsgrad in Achtel und Wolkenuntergrenze
Mo, 28.05. 7:00 7(4200m) 8(9000m)
Mo, 28.05. 6:40 7(4200m) 7(9000m) 8(9000m)
Mo, 28.05. 6:30 1(4200m) 3(9000m) 8(9000m)
Mo, 28.05. 6:20 1(4200m) 3(9000m) 8(9000m)
Mo, 28.05. 6:10 8(9000m)
Mo, 28.05. 6:00 7(9000m)
Mo, 28.05. 5:50 7(9000m)
Mo, 28.05. 5:30 6(9000m)
Mo, 28.05. 5:00 2(8400m)
Mo, 28.05. 4:30 6(3600m) 8(8400m)
Mo, 28.05. 4:00 6(3300m) 8(6000m) 8(7500m)
Mo, 28.05. 3:30 1(2100m) 8(6300m) 8(6600m)
Ortszeit Luftdruck NN (hPa) Tendenz (hPa in 3 Std.)
Mo, 28.05. 2:00 1019 - 0,2
So, 27.05. 20:00 1019 + 0,3
So, 27.05. 14:00 1019 - 1,4
So, 27.05. 8:00 1021 0,0
So, 27.05. 2:00 1022 + 0,1
Sa, 26.05. 20:00 1021 - 0,1
Sa, 26.05. 14:00 1022 + 0,1
Sa, 26.05. 8:00 1022 + 0,6
Ortszeit Luftdruck NN (hPa) Tendenz (hPa in 3 Std.)
Mo, 28.05. 7:00 1019 + 0,7
Mo, 28.05. 6:40 1019 keine Meldung
Mo, 28.05. 6:30 1019 + 0,2
Mo, 28.05. 6:20 1019 keine Meldung
Mo, 28.05. 6:10 1019 keine Meldung
Mo, 28.05. 6:00 1019 - 0,1
Mo, 28.05. 5:50 1019 keine Meldung
Mo, 28.05. 5:30 1019 - 0,1
Mo, 28.05. 5:00 1019 - 0,4
Mo, 28.05. 4:30 1018 - 0,6
Mo, 28.05. 4:00 1019 - 0,6
Mo, 28.05. 3:30 1019 - 0,5
Ortszeit Schneehöhe (cm)
Mo, 28.05. 2:00 -
So, 27.05. 20:00 -
So, 27.05. 14:00 -
So, 27.05. 8:00 -
So, 27.05. 2:00 -
Sa, 26.05. 20:00 -
Sa, 26.05. 14:00 -
Sa, 26.05. 8:00 -
Ortszeit Schneehöhe (cm)
Mo, 28.05. 7:00 -
Mo, 28.05. 6:40 -
Mo, 28.05. 6:30 -
Mo, 28.05. 6:20 -
Mo, 28.05. 6:10 -
Mo, 28.05. 6:00 -
Mo, 28.05. 5:50 -
Mo, 28.05. 5:30 -
Mo, 28.05. 5:00 -
Mo, 28.05. 4:30 -
Mo, 28.05. 4:00 -
Mo, 28.05. 3:30 -
Link zu dieser Seite / Seite empfehlen

Das Wetter in ...